Location: Nebula Knoll Observatory
(43.6666°N, 71.0000°W)
Time: 17:19:19
(UTC-04:00)

Daily predictions for brighter satellites

Satellite Brightness Start Highest point End
(mag) Time Altitude Azimuth Time Altitude Azimuth Time Altitude Azimuth
deb Kosmos-1763 4.2 20:43:13 10° SSW 20:46:55 82° WNW 20:50:39 10° NNE
CENTAUR R/B 2.7 20:45:18 10° S 20:50:59 50° ESE 20:57:29 10° NE
ERS-1 Rocket 4.2 20:48:25 10° ESE 20:52:34 27° ENE 20:56:44 10° N
ERS-2 3.0 20:52:42 10° S 20:56:17 50° W 20:59:54 10° NNW
Cosmos 2360 Rocket 2.7 20:51:03 10° NNW 20:56:32 49° ENE 21:01:59 10° SE
Cosmos 2219 Rocket 4.0 20:54:55 10° N 20:58:44 18° NE 21:02:32 10° E
Cosmos 1980 Rocket 4.3 20:54:25 10° NW 20:58:49 24° WSW 21:03:13 10° SSW
Cosmos 1666 3.4 20:58:11 10° NNW 21:02:00 57° W 21:05:47 10° S
Cosmos 1898 Rocket 4.2 20:59:18 10° NNW 21:04:29 56° WSW 21:09:40 10° S
ATLAS 3B R/B 4.2 21:00:43 10° WSW 21:07:26 42° NW 21:13:55 10° NNE
MetOp-A 4.4 21:02:55 10° SSE 21:08:08 56° ENE 21:13:23 10° N
Cosmos 1814 Rocket 4.0 21:03:05 10° SSW 21:08:20 84° ESE 21:13:41 10° NNE
Cosmos 1356 4.0 21:07:34 10° SSE 21:10:49 38° E 21:14:05 10° NNE
Meteor 2-9 Rocket 4.1 21:07:27 10° N 21:12:50 81° E 21:18:17 10° SSE
Cosmos 990 Rocket 4.4 21:08:46 10° NNW 21:13:56 63° WSW 21:19:06 10° S
Cosmos 1975 4.4 21:10:54 10° NNW 21:14:35 35° W 21:18:13 10° SSW
Aureole 2 Rocket 1.8 21:13:03 10° NNW 21:15:58 86° WSW 21:18:19 13° SSE
Cosmos 2034 Rocket 4.5 21:11:02 10° SSE 21:16:42 41° E 21:22:23 10° NNE
Cosmos 1125 Rocket 4.3 21:12:51 10° N 21:17:43 37° ENE 21:21:51 14° SE
Cosmos 1464 Rocket 4.2 21:12:32 10° S 21:18:46 59° E 21:25:01 10° NNE
Cosmos 1455 Rocket 3.0 21:15:32 10° N 21:19:54 78° E 21:24:18 10° SSE
Cosmos 1743 4.1 21:16:30 10° NNW 21:20:02 37° W 21:23:33 10° SSW
H-2A R/B 2.1 21:17:08 11° SSE 21:21:44 59° ENE 21:26:44 10° N
BREEZE-M R/B 3.7 21:17:58 10° W 21:21:53 41° NNW 21:24:26 10° NE
Iridium 2 4.1 21:19:34 10° SSW 21:23:22 67° W 21:27:12 10° N
USA 245 4.1 21:23:10 16° SE 21:25:58 42° ENE 21:30:23 10° N
Helios 1A 4.0 21:24:20 15° ESE 21:27:09 31° ENE 21:30:50 10° N
Cosmos 2333 Rocket 3.6 21:24:35 10° N 21:29:22 27° NE 21:33:45 12° ESE
GPS 2-05 Rocket1 4.4 21:27:41 10° SSW 21:29:49 16° SSE 21:30:00 16° SSE
COSMOS 2428 3.5 21:27:10 10° NNW 21:32:31 40° ENE 21:36:42 16° ESE
Cosmos 1975 Rocket 4.4 21:28:42 10° SSW 21:32:46 40° WNW 21:36:52 10° N
Meteor 2-20 Rocket 4.5 21:29:17 10° N 21:35:27 90° E 21:41:33 10° S
Meteor 1-23 Rocket 4.2 21:31:36 10° S 21:37:07 67° E 21:42:38 10° NNE
Cosmos 1833 4.2 21:34:43 10° SSW 21:40:28 88° WNW 21:46:11 10° NNE
ARGOS 3.3 21:37:34 11° S 21:42:51 73° WSW 21:48:17 10° NNW
Meteor 2-4 Rocket 4.1 21:38:40 10° SSW 21:44:04 64° WNW 21:49:42 10° N
DMSP B5D2-2 4.4 21:39:38 10° NNE 21:44:45 48° E 21:48:51 15° S
Terra 3.2 21:42:40 16° ESE 21:45:22 26° ENE 21:49:17 10° N
Helios 1B rocket 3.5 21:43:08 10° NE 21:46:44 28° E 21:48:13 22° SE
Cosmos 540 Rocket 3.4 21:41:36 10° SSW 21:46:46 82° ESE 21:51:58 10° NNE
Cosmos 1544 Rocket 4.3 21:43:11 10° NNW 21:47:30 52° W 21:51:49 10° S
Cosmos 2297 Rocket 4.1 21:47:15 11° E 21:47:32 11° E 21:48:41 10° E
Cosmos 1515 3.7 21:44:33 10° S 21:48:23 81° W 21:52:14 10° N
SPOT 5 3.0 21:47:09 21° SE 21:49:52 52° ENE 21:54:24 10° N
Cosmos 2227 Rocket 3.9 21:50:42 13° ESE 21:51:14 13° E 21:53:48 10° ENE
Cosmos 2322 Rocket 3.9 21:47:11 10° NW 21:51:51 27° WSW 21:56:29 10° SSW
Shenzhou-11 Module 3.6 21:51:56 10° WSW 21:54:13 20° SSW 21:54:34 20° SSW
Cosmos 2322 3.8 21:48:29 10° NNW 21:54:15 83° WSW 21:58:16 20° SSE
Lacrosse 5 rocket 1.7 21:51:05 10° NW 21:55:19 53° SW 21:57:27 25° SSE
SJ 16-02 1.4 21:51:23 10° NNW 21:55:50 82° WSW 21:58:37 23° SSE
Cosmos 2237 Rocket 3.7 21:51:38 10° N 21:56:15 25° NE 22:00:06 13° E
Abrixas rocket 3.8 21:53:27 10° WNW 21:56:27 35° N 21:59:28 10° ENE
IGS 5A 4.3 21:59:06 24° ESE 22:00:55 36° ENE 22:04:45 10° N
Tiangong 2 1.0 21:58:58 10° W 22:02:06 67° S 22:03:04 39° ESE
SL-16 R/B 4.2 21:58:27 10° NW 22:02:37 21° W 22:06:47 10° SSW
Cosmos 1536 Rocket 4.1 22:01:47 10° SSW 22:06:09 59° W 22:10:35 10° N
Cosmos 1066 Rocket 4.3 22:03:04 22° SSE 22:06:20 53° E 22:11:38 10° NNE
BREEZE M DEB (TANK) 3.7 21:59:40 10° WNW 22:07:32 36° SW 22:09:21 23° S
ISS -1.1 22:06:13 10° NW 22:08:42 20° N 22:11:12 10° NE
Okean 1-7 Rocket 4.2 22:10:55 30° SE 22:12:33 41° E 22:16:49 10° NNE
USA 234 3.4 22:06:28 10° NE 22:13:01 77° NW 22:19:35 10° WSW
Cosmos 372 Rocket 4.2 22:09:57 10° NNW 22:15:03 65° WSW 22:18:02 24° S
Cosmos 1544 3.5 22:12:37 10° N 22:16:15 49° ENE 22:17:09 38° ESE
CZ-4C R/B 2.9 22:10:51 10° NW 22:18:04 85° NE 22:23:08 25° SE
Cosmos 1092 Rocket 4.0 22:16:27 10° N 22:22:50 76° E 22:26:28 27° SSE
Nadezhda 4 Rocket 4.1 22:17:03 10° N 22:23:22 75° W 22:27:44 21° S
Cosmos 2219 3.2 22:20:18 20° S 22:24:15 61° ESE 22:29:56 10° NNE
DELTA 2 R/B (1) 4.1 22:20:06 10° SW 22:25:06 35° SSE 22:26:36 30° SE
ERS-1 Rocket 4.0 22:27:39 17° SSW 22:31:09 39° W 22:35:53 10° NNW
NOSS 0 Rocket 4.2 22:25:19 10° NNW 22:31:31 60° ENE 22:34:40 29° SE
Cosmos 2058 Rocket 4.0 22:27:30 10° N 22:31:38 34° ENE 22:32:45 30° ESE
Meteor 1-22 Rocket 4.2 22:28:23 10° N 22:33:41 61° ENE 22:35:46 35° SE
CZ-2C R/B 3.4 22:30:44 10° NNE 22:35:56 37° E 22:37:25 32° SE
Cosmos 1766 3.6 22:32:58 10° N 22:36:52 50° E 22:37:34 44° ESE
CARTOSAT-1 3.5 22:35:58 41° SSE 22:37:25 89° WSW 22:41:46 10° NNW
Cosmos 2360 Rocket 3.8 22:35:39 10° NW 22:40:12 26° WSW 22:43:55 14° SSW
CENTAUR R/B 4.1 22:36:05 10° WSW 22:41:51 38° NW 22:48:27 10° NNE
Cosmos 1025 Rocket 3.7 22:40:14 20° SSW 22:42:59 51° WNW 22:47:17 10° N
Cosmos 2219 Rocket 2.1 22:37:47 10° NNW 22:43:24 82° WSW 22:45:43 37° SSE
Intercosmos 25 3.8 22:47:31 43° ESE 22:47:39 43° E 22:50:56 10° NNE
Cosmos 1538 Rocket 4.3 22:48:36 41° SE 22:49:44 48° ESE 22:54:47 10° NNE
Cosmos 2026 Rocket 3.9 22:43:49 10° N 22:50:00 78° E 22:52:36 37° SSE
CZ-2C R/B 3.1 22:50:58 39° SSE 22:53:05 83° ENE 22:58:48 10° NNW
Cosmos 1606 Rocket 3.6 22:50:32 10° N 22:54:59 79° W 22:56:10 49° S
Cosmos 2279 Rocket 4.1 22:53:18 37° SSE 22:55:40 59° E 23:01:46 10° NNE
Meteor 1-29 3.6 22:53:04 10° N 22:56:29 53° WNW 22:57:17 42° WSW
ERBS 3.7 22:57:35 10° NNW 23:00:40 31° NNE 23:01:19 29° ENE
H-2A R/B 4.2 22:58:25 10° SW 23:01:36 17° W 23:04:50 10° NW
Cosmos 1758 4.1 22:59:46 10° N 23:03:36 37° ENE 23:03:49 37° E
Cosmos 1655 Rocket 4.1 22:57:47 10° N 23:04:09 66° E 23:06:29 40° SSE
Cosmos 1805 3.1 23:05:55 10° N 23:09:53 87° E 23:10:05 80° SSE
Mayak 0.7 23:07:32 10° NE 23:09:44 17° E 23:09:44 17° E
Cosmos 2084 Rocket 3.2 23:06:36 10° NNW 23:10:36 68° NE 23:10:54 65° E
Cosmos 1842 3.1 23:10:31 79° SE 23:10:38 81° E 23:14:33 10° N
Cosmos 2333 Rocket 2.6 23:08:24 10° NW 23:13:57 54° WSW 23:15:46 38° SSW
SL-16 R/B 3.1 23:09:25 10° NNW 23:14:43 39° ENE 23:16:59 27° ESE
COSMOS 2455 2.8 23:14:03 43° S 23:15:58 65° ESE 23:21:57 10° NE
COSMOS 2428 3.9 23:11:40 10° NW 23:16:37 32° WSW 23:18:42 25° SW
Cosmos 1470 3.9 23:13:19 10° N 23:16:43 32° ENE 23:16:43 32° ENE
Cosmos 1174 3.9 23:13:47 10° NW 23:16:13 53° NW 23:16:13 53° NW
Cosmos 1428 Rocket 4.4 23:13:52 10° N 23:20:01 82° W 23:22:12 43° S
Helios 1B rocket 4.4 23:18:29 10° N 23:21:55 26° WNW 23:24:34 14° WSW
Terra 2.9 23:21:33 30° SW 23:22:56 37° W 23:27:21 10° NNW
Cosmos 1980 3.7 23:17:49 10° NNW 23:23:28 75° WSW 23:24:56 50° S
H-2A R/B 3.8 23:23:04 20° E 23:23:49 21° ENE 23:27:01 10° NNE
Cosmos 773 Rocket 3.9 23:23:51 49° SSW 23:25:15 89° WNW 23:30:26 10° NNE
Cosmos 2297 Rocket 2.1 23:29:00 49° S 23:30:35 79° ESE 23:36:16 10° NNE
Cosmos 1892 Rocket 4.4 23:31:41 36° WSW 23:32:47 44° WNW 23:36:58 10° N
Abrixas rocket 3.4 23:30:11 10° WNW 23:32:56 41° N 23:32:56 41° N
Cosmos 2227 Rocket 2.1 23:32:28 43° SSW 23:34:25 87° WNW 23:40:08 10° NNE
Cosmos 2266 Rocket 4.2 23:28:22 10° N 23:34:41 60° E 23:36:36 43° SE
Cosmos 1707 3.9 23:37:36 34° ENE 23:37:36 34° ENE 23:40:32 10° NNE
Cosmos 2228 3.8 23:33:58 10° NNW 23:38:01 41° W 23:38:31 39° WSW
Cosmos 2237 Rocket 2.4 23:35:07 10° NNW 23:40:44 59° WSW 23:41:55 48° SSW
Cosmos 1378 3.7 23:42:48 51° NE 23:42:48 51° NE 23:45:51 10° NNE
Cosmos 1953 2.4 23:39:45 10° N 23:43:28 74° NNE 23:43:28 74° NNE
SAR-Lupe-4 4.4 23:44:23 43° WNW 23:44:23 43° WNW 23:47:21 10° NNW
BREEZE-M R/B 4.5 23:43:18 10° NW 23:44:30 20° NNW 23:44:30 20° NNW
ISS -2.0 23:42:57 10° NW 23:45:54 29° NNE 23:46:13 29° NNE
Iridium 4 Rocket 3.8 23:46:41 51° SSW 23:48:12 80° W 23:54:10 10° N
Cosmos 2082 3.6 23:48:07 49° SSW 23:49:45 87° WNW 23:55:32 10° NNE
